Weather History for KRCA - October, 2013

Change the Weather History Date:

Monday, October 7, 2013

  Actual Average (KRAP) Record (KRAP)
Temperature  
Mean Temperature 45 °F 51 °F  
Max Temperature 59 °F 65 °F 89 °F (2003)
Min Temperature 34 °F 37 °F 13 °F (2000)
Degree Days  
Heating Degree Days 20 14  
Month to date heating degree days 90  
Since 1 July heating degree days 314  
Cooling Degree Days 0 0  
Month to date cooling degree days 0  
Year to date cooling degree days 633  
Moisture  
Dew Point 35 °F    
Average Humidity 64    
Maximum Humidity 84    
Minimum Humidity 37    
Precipitation  
Precipitation 0.00 in 0.05 in 0.48 in (1949)
Month to date precipitation 0.38  
Year to date precipitation 14.30  
Snow  
Snow 0.00 in 0.00 in - ()
Month to date snowfall 0.1  
Since 1 July snowfall 0.3  
Since 1 September snowfall 0.3  
Snow Depth -    
Sea Level Pressure  
Sea Level Pressure 29.92 in    
Wind  
Wind Speed 7 mph (SW)    
Max Wind Speed 14 mph    
Max Gust Speed -    
Visibility 10 miles    
Events      
T = Trace of Precipitation, MM = Missing Value Source: NWS Daily Summary

Daily Weather History Graph

Daily Weather History Graph

Search for Another Location

Airport or City:

Trip Planner

Search our weather history database for the weather conditions in past years. The results will help you decide how hot, cold, wet, or windy it might be!

Date:

Astronomy

Oct. 07, 2013 Rise Set
Actual Time 6:57 AM MDT 6:21 PM MDT
Civil Twilight 6:28 AM MDT 6:50 PM MDT
Nautical Twilight 5:55 AM MDT 7:24 PM MDT
Astronomical Twilight 5:21 AM MDT 7:57 PM MDT
Moon 9:56 AM MDT (10/7) 8:01 PM MDT (10/7)
Length of Visible Light 12h 21m
Length of Day
11h 24m
Waxing Crescent, 9% of the Moon is Illuminated
Oct 7
Waxing Crescent
Oct 11
First Quarter
Oct 18
Full
Oct 26
Last Quarter
Nov 3
New

Hourly Weather History & Observations

Time (MDT) Temp. Windchill Dew Point Humidity Pressure Visibility Wind Dir Wind Speed Gust Speed Precip Events Conditions
12:58 AM 34.7 °F 30.6 °F 30.4 °F 84% 30.10 in 10.0 mi West 4.6 mph - N/A   Clear
1:58 AM 36.0 °F 29.6 °F 31.1 °F 82% 30.10 in 10.0 mi West 8.1 mph - N/A   Clear
2:58 AM 34.0 °F 27.2 °F 29.3 °F 83% 30.08 in 10.0 mi WNW 8.1 mph - N/A   Clear
3:58 AM 35.8 °F 29.4 °F 30.4 °F 81% 30.06 in 10.0 mi West 8.1 mph - N/A   Clear
4:58 AM 36.3 °F 30.8 °F 30.4 °F 79% 30.05 in 10.0 mi West 6.9 mph - N/A   Clear
5:58 AM 36.7 °F 30.5 °F 30.0 °F 77% 30.05 in 10.0 mi West 8.1 mph - N/A   Clear
6:58 AM 39.7 °F 34.9 °F 30.7 °F 70% 30.04 in 10.0 mi West 6.9 mph - N/A   Clear
7:58 AM 41.5 °F 37.1 °F 31.8 °F 68% 30.04 in 10.0 mi WSW 6.9 mph - N/A   Clear
8:58 AM 45.7 °F 42.7 °F 32.4 °F 60% 30.03 in 10.0 mi WSW 5.8 mph - N/A   Clear
9:58 AM 50.7 °F - 34.9 °F 55% 30.01 in 10.0 mi SW 2.3 mph - N/A   Clear
10:58 AM 53.8 °F - 34.2 °F 47% 29.99 in 10.0 mi South 6.9 mph - N/A   Clear
11:58 AM 54.5 °F - 35.4 °F 49% 29.96 in 10.0 mi South 10.4 mph - N/A   Clear
12:58 PM 52.3 °F - 38.5 °F 59% 29.95 in 10.0 mi South 9.2 mph - N/A   Clear
1:58 PM 55.2 °F - 41.9 °F 61% 29.89 in 10.0 mi South 8.1 mph - N/A   Clear
2:58 PM 53.4 °F - 42.3 °F 66% 29.88 in 10.0 mi SSE 10.4 mph - N/A   Clear
3:58 PM 54.5 °F - 42.1 °F 63% 29.84 in 10.0 mi SSE 13.8 mph - N/A   Clear
4:58 PM 56.5 °F - 42.1 °F 59% 29.82 in 10.0 mi Variable 1.2 mph - N/A   Clear
5:58 PM 53.4 °F - 38.1 °F 56% 29.80 in 10.0 mi Calm Calm - N/A   Clear
6:58 PM 51.1 °F - 37.4 °F 60% 29.80 in 10.0 mi SSW 8.1 mph - N/A   Clear
7:58 PM 51.8 °F - 37.2 °F 58% 29.77 in 10.0 mi SSW 12.7 mph - N/A   Clear
8:58 PM 53.6 °F - 39.6 °F 59% 29.76 in 10.0 mi South 4.6 mph - N/A   Clear
9:58 PM 51.1 °F - 37.8 °F 60% 29.75 in 10.0 mi SE 4.6 mph - N/A   Partly Cloudy
10:58 PM 50.0 °F - 37.0 °F 61% 29.72 in 10.0 mi SSE 6.9 mph - N/A   Partly Cloudy
11:58 PM 56.3 °F - 30.4 °F 37% 29.68 in 10.0 mi SW 11.5 mph - N/A   Clear